RH
80 80 78 80 80 77 74 59 73 89 90 83 57 56 59 60 57 55 63 50 47 48 50 52 52 52 54 56 55 55 55 56 56 57 56 55 55 56
82 79 80 81 82 82 81 78 78 80 89 65 61 54 50 49 57 51 63 57 52 49 51 53 52 54 53 56 53 54 56 56 56 56 57 57 57 57
78 77 81 77 79 76 78 77 76 79 80 73 64 55 52 50 51 55 56 54 58 54 53 52 54 54 57 53 54 56 56 58 56 58 58 58 59 58
77 77 68 54 63 64 64 62 62 63 68 68 63 63 61 59 58 59 53 46 62 55 55 53 57 57 52 55 56 56 57 56 57 58 60 59 58 58
66 58 56 52 57 61 60 64 65 56 64 66 76 77 72 69 66 62 60 66 58 58 56 59 56 54 56 56 57 57 58 59 60 61 60 58 58 58
56 53 53 54 56 59 60 64 61 68 68 72 72 72 73 74 76 76 79 78 79 61 62 62 59 58 60 60 60 61 62 61 64 62 60 59 60 60
61 57 62 62 64 57 62 68 67 73 79 86 88 80 78 78 78 83 86 87 88 87 85 84 78 81 81 70 68 64 62 66 63 61 60 61 61 61
75 75 76 80 72 64 65 67 71 84 87 87 84 76 81 85 84 86 92 96 95 91 94 83 81 77 80 81 64 64 66 64 61 60 62 62 62 62
82 83 76 68 74 72 71 74 70 66 67 73 76 79 83 80 83 88 92 95 94 87 89 87 81 80 80 62 68 67 63 60 60 63 64 63 63 64
83 79 78 82 80 80 76 75 74 74 74 66 76 80 81 83 86 84 90 90 86 83 85 96 89 86 72 73 73 67 63 60 64 65 64 65 66 64
82 80 81 81 76 72 76 78 80 79 70 69 68 68 68 69 77 80 92 94 89 81 86 86 88 78 72 77 79 63 61 64 67 65 66 67 67 65
87 81 76 76 71 72 78 81 82 79 82 74 77 81 83 76 69 85 87 95 97 96 90 90 90 95 94 84 82 70 80 70 66 68 70 70 68 71
84 86 77 71 72 70 76 82 77 81 76 79 84 86 75 75 76 78 80 88 98 97 80 88 99 93 94 89 86 78 76 76 73 72 74 73 71 69
79 79 74 67 68 71 77 68 70 76 80 84 85 85 86 88 87 88 86 88 90 89 83 87 99 100 98 93 88 82 76 77 77 77 78 77 75 76
77 74 70 67 65 71 66 70 74 83 86 88 88 91 95 97 91 92 90 88 93 90 75 89 98 97 100 97 95 88 86 85 79 88 77 80 83 83
72 69 70 76 77 75 74 74 74 78 84 90 92 95 97 97 98 98 99 98 100 95 78 88 92 95 100 96 95 92 88 95 83 84 83 83 82 81
78 78 78 78 77 75 76 78 82 85 89 90 95 97 96 97 97 98 99 100 100 98 92 89 86 93 94 96 97 92 93 92 86 87 87 84 82 86
75 78 75 73 75 75 77 82 85 84 93 93 98 98 98 99 99 98 98 100 97 87 90 91 93 93 94 88 70 91 85 88 86 85 90 94 87 84
76 76 75 76 79 83 87 94 98 98 89 97 98 99 99 99 97 99 99 100 95 94 94 94 100 100 95 92 73 59 86 85 89 91 88 93 94 86
76 78 81 80 82 88 92 97 98 98 98 99 98 99 100 100 100 100 99 100 98 97 98 95 99 100 96 95 95 84 72 88 90 93 91 87 83 75
80 80 78 83 87 91 94 97 96 98 98 98 98 98 99 100 99 99 99 88 89 99 95 92 89 77 91 97 95 85 78 67 74 87 90 95 91 88
79 82 84 87 92 95 98 98 99 98 98 98 97 97 90 88 93 94 98 98 95 96 94 90 89 97 100 100 94 92 85 78 72 73 72 77 95 96
82 84 89 91 94 96 98 100 100 99 99 98 98 97 98 100 97 98 97 96 97 96 94 94 91 93 98 98 92 91 91 88 86 86 81 70 69 72
Wind_Speed
6 5 4 2 3 2 3 8 6 5 3 3 2 2 2 3 4 5 4 10 10 9 9 11 12 10 12 13 14 16 16 16 16 18 17 18 19 21
5 6 4 3 4 4 4 4 3 4 4 1 1 2 1 2 4 5 4 6 10 10 10 12 11 11 12 13 16 16 16 16 18 18 18 19 21 21
5 6 6 5 4 4 5 4 4 4 5 2 2 1 2 1 3 3 3 3 3 9 13 13 13 12 12 16 15 16 16 17 18 17 18 19 21 21
5 6 6 5 6 6 4 5 5 4 5 5 1 1 1 1 2 1 1 2 4 8 13 12 12 15 16 16 16 16 17 18 17 18 21 21 21 21
7 7 5 6 6 5 5 6 4 5 5 4 3 1 1 1 2 3 2 2 3 8 9 8 15 15 15 16 16 17 17 17 20 20 20 20 20 22
8 7 7 8 6 6 6 6 4 5 4 3 3 2 2 1 2 2 2 1 3 4 2 6 12 13 14 16 14 17 17 19 20 20 19 19 22 24
7 7 6 9 12 9 5 5 4 3 3 3 2 2 2 1 1 1 1 2 3 2 2 2 3 3 4 8 11 17 20 19 18 17 20 22 22 23
12 8 10 13 11 12 13 10 6 4 3 2 2 3 2 1 0 1 2 1 3 2 1 6 1 5 4 3 17 21 18 16 15 20 23 21 23 24
12 9 8 6 9 7 13 13 8 7 4 4 4 1 1 1 1 2 3 2 3 4 1 4 2 5 4 8 19 18 15 13 20 21 21 22 24 24
10 8 7 8 6 8 8 7 6 5 5 4 5 4 2 2 3 2 1 3 4 4 0 4 1 4 6 8 18 15 11 20 21 21 22 24 24 23
9 8 7 8 13 13 8 8 6 4 8 11 9 8 7 6 4 0 2 2 3 3 1 3 3 8 7 6 3 7 20 19 21 22 24 23 22 24
9 10 17 11 15 14 7 7 6 4 4 4 4 6 7 5 6 3 1 0 2 3 2 5 4 4 6 2 2 7 5 15 22 24 22 21 22 10
8 8 7 16 15 13 11 6 6 7 6 4 3 3 3 2 2 2 1 1 2 3 5 2 2 4 4 7 3 4 6 8 10 12 17 20 22 20
10 8 9 16 15 14 8 8 11 11 4 3 2 2 1 2 3 4 4 3 3 6 7 5 3 3 3 7 7 4 8 7 8 8 8 14 20 22
8 12 18 16 13 10 10 12 11 5 4 2 2 2 0 2 4 3 3 3 5 6 5 5 3 4 2 6 8 9 13 5 9 7 10 9 10 9
16 12 10 11 11 10 8 7 5 4 3 2 1 2 1 2 2 1 1 2 2 4 6 4 5 3 3 6 8 11 9 7 8 10 10 9 9 8
12 6 6 6 6 5 4 4 4 3 3 2 2 1 2 2 2 1 1 2 1 4 6 6 6 4 6 9 9 9 9 10 9 10 11 12 10 8
8 8 6 6 6 5 5 4 3 5 2 2 1 2 2 1 2 2 1 1 4 6 7 6 6 7 4 4 12 8 8 9 9 10 10 11 11 9
6 6 6 6 5 4 4 3 2 2 2 1 1 1 1 1 4 3 2 2 4 5 5 5 2 3 9 11 8 13 10 11 10 10 9 9 11 12
6 7 6 6 5 5 4 3 2 2 2 1 1 1 2 1 2 2 2 2 4 4 4 5 3 3 6 10 14 14 16 9 9 10 11 10 11 22
6 6 6 6 5 4 3 3 3 3 2 1 0 1 1 0 2 2 3 10 11 2 7 8 7 19 7 5 7 10 10 16 15 11 11 11 11 9
6 7 6 5 5 4 3 3 2 2 1 1 2 2 2 3 3 4 3 4 6 6 8 8 8 4 2 3 11 13 11 10 15 20 19 17 8 7
7 6 5 5 4 4 3 3 3 2 2 3 3 3 2 2 3 3 4 5 7 7 8 9 7 4 4 5 13 11 15 14 10 12 12 18 17 19
Wind_Direction
146 148 134 131 121 138 131 154 140 146 159 206 139 98 99 104 104 74 44 39 26 17 28 18 359 358 353 348 350 344 343 340 343 339 333 333 330 332
127 131 115 113 101 96 107 93 91 128 124 153 113 134 49 129 88 84 80 41 15 5 7 356 351 353 344 348 339 342 338 337 338 331 326 331 330 323
94 122 111 107 93 80 80 91 95 96 107 87 77 87 121 89 58 24 59 55 4 352 349 347 348 343 351 337 336 336 334 335 329 322 325 324 321 318
104 99 105 108 88 79 70 72 71 74 113 120 124 133 103 64 81 84 25 64 26 341 341 341 351 348 338 338 335 334 334 326 322 323 320 317 315 318
106 97 88 92 84 84 85 84 71 70 76 134 150 134 183 16 113 71 29 21 358 318 333 8 347 344 340 338 332 331 328 323 321 317 313 312 316 318
100 117 118 103 112 107 93 100 108 98 110 120 96 108 108 45 69 99 348 6 309 320 349 344 334 335 336 332 330 324 322 318 318 314 313 321 320 314
106 106 96 126 125 120 133 129 111 85 73 73 103 78 47 358 53 28 281 295 280 225 282 273 299 301 289 324 315 313 319 318 317 318 323 317 315 317
133 125 111 108 127 129 117 114 109 119 138 128 101 117 151 144 91 267 282 339 310 195 68 303 267 305 302 307 311 318 318 319 322 323 317 316 316 317
134 134 131 151 136 129 121 112 122 134 147 131 122 108 101 143 268 269 250 245 256 290 332 280 266 305 300 308 309 312 314 319 327 318 316 316 319 316
132 135 140 121 132 127 116 108 98 92 99 96 103 129 125 236 207 244 310 301 289 276 267 271 313 290 311 299 299 303 314 323 320 318 318 320 317 318
126 121 139 140 150 148 124 119 102 79 98 100 91 80 75 67 59 93 28 10 305 291 9 306 332 313 302 291 287 311 318 314 319 317 320 319 318 320
140 152 156 152 147 147 134 126 126 129 114 72 52 63 69 54 52 84 127 317 276 301 250 349 319 356 323 276 269 291 274 306 318 317 319 320 321 315
147 148 153 150 143 142 136 135 143 136 116 98 94 77 46 17 7 16 359 238 225 249 282 354 304 300 252 298 252 278 291 306 306 309 310 310 313 315
148 145 149 152 144 144 136 161 149 123 123 118 123 95 31 330 336 345 314 293 263 249 283 284 239 221 265 295 296 309 312 301 294 299 299 297 303 307
133 146 148 146 144 135 147 127 116 112 121 115 144 114 307 289 325 322 310 319 287 284 284 267 232 268 245 280 292 314 312 308 296 287 304 296 296 300
147 148 139 125 126 119 101 95 98 112 122 144 110 57 339 320 285 259 313 314 302 288 288 272 286 268 276 274 287 294 291 294 298 294 294 293 290 284
127 110 113 110 108 111 106 105 105 102 114 106 78 68 254 258 286 347 267 318 246 288 314 316 319 275 269 273 286 277 285 288 287 292 302 300 297 288
125 128 129 134 140 141 134 130 124 119 106 105 125 219 242 290 273 290 245 237 306 328 317 308 318 327 326 289 269 278 289 291 295 299 296 295 299 295
127 126 131 140 139 135 136 127 120 125 130 174 221 274 301 299 335 296 287 273 318 305 295 295 293 313 309 308 295 296 305 296 295 294 294 286 289 293
121 129 129 134 136 136 132 116 111 93 90 107 89 26 351 294 302 292 309 296 298 292 308 298 284 240 288 304 311 302 297 292 294 291 296 291 283 287
119 121 130 134 134 131 123 120 130 139 148 153 288 205 282 227 305 311 308 324 325 311 304 305 290 299 307 317 306 299 299 300 295 298 303 294 297 295
127 131 132 129 127 124 122 130 122 114 154 192 256 247 301 328 319 301 281 292 295 283 288 289 289 290 333 250 292 297 299 308 308 303 297 289 289 290
133 132 131 126 122 128 130 126 131 201 214 222 237 258 291 302 271 266 286 293 287 284 288 296 298 294 272 263 293 303 302 303 312 316 310 310 303 297